Regional Weather Roundup
Issued by NWS

Home | Current Version | Previous Version | Text Only | Print | Product List | Glossary Off
Versions: 1 2 3 4 5 6 7 8 9 10 11 12 13 14 15 16 17 18 19 20 21 22 23 24 25 26 27 28 29 30 31 32 33 34 35 36 37 38 39 40 41 42 43 44 45 46 47 48 49 50

000
ASUS43 KMKX 270011
RWRWI

WISCONSIN REGIONAL WEATHER ROUNDUP
NATIONAL WEATHER SERVICE MILWAUKEE/SULLIVAN WI
600 PM CST WED NOV 26 2014

NOTE: "FAIR" INDICATES FEW OR NO CLOUDS BELOW 12,000 FEET WITH NO
SIGNIFICANT WEATHER AND/OR OBSTRUCTIONS TO VISIBILITY.

WIZ001-002-006>008-014>016-023>028-270100-
NORTHWEST WISCONSIN

CITY           SKY/WX    TMP DP  RH WIND       PRES   REMARKS
SUPERIOR ARPT  MOCLDY    15   5  65 N8        30.34R WCI   4
6HR MIN TEMP:  15; 6HR MAX TEMP:  24;

ASHLAND        CLOUDY    20  14  77 NW8       30.27R WCI  10
6HR MIN TEMP:  19; 6HR MAX TEMP:  25; 6HR PCP: TRACE;

HAYWARD        CLOUDY    19  13  77 VRB5      30.25R WCI  12
6HR MIN TEMP:  19; 6HR MAX TEMP:  24; 6HR PCP: TRACE;

SIREN          MOCLDY    21  11  65 N9        30.28R WCI  10
6HR MIN TEMP:  21; 6HR MAX TEMP:  25;

CUMBERLAND     CLOUDY    21  16  79 N8        30.23R WCI  12
RICE LAKE      MOCLDY    22  17  82 NW7       30.25R WCI  13
6HR MIN TEMP:  22; 6HR MAX TEMP:  26;

CHETEK         MOCLDY    23  19  85 NW3       30.23S
6HR MIN TEMP:  22; 6HR MAX TEMP:  26;

LADYSMITH      FLURRIES  24  20  86 NW9       30.22R WCI  14
6HR MIN TEMP:  24; 6HR MAX TEMP:  25;

EAU CLAIRE     CLOUDY    25  18  74 NW7       30.22S WCI  17
6HR MIN TEMP:  23; 6HR MAX TEMP:  26; 6HR PCP: TRACE;

MENOMONIE      MOCLDY    25  17  74 NW8       30.24R WCI  16
6HR MIN TEMP:  24; 6HR MAX TEMP:  26;

NEW RICHMOND   MOCLDY    18  14  82 NW5       30.26R WCI  11
6HR MIN TEMP:  18; 6HR MAX TEMP:  26;

OSCEOLA        CLOUDY    23  15  70 NW10      30.30R WCI  13
6HR MIN TEMP:  23; 6HR MAX TEMP:  26;

$$

WIZ003>005-009-010-017-018-270100-
NORTH CENTRAL WISCONSIN

CITY           SKY/WX    TMP DP  RH WIND       PRES   REMARKS
MANITOWISH WTR LGT SNOW  20  18  91 N12       30.15R WCI   8
6HR MIN TEMP:  20; 6HR MAX TEMP:  22;

ARBOR VITAE    LGT SNOW  23  20  89 NW7       30.14S WCI  15
6HR MIN TEMP:  22; 6HR MAX TEMP:  23;

WOODRUFF       LGT SNOW  23  20  89 NW7       30.14S WCI  15
6HR MIN TEMP:  22; 6HR MAX TEMP:  23;

RHINELANDER    LGT SNOW  20  17  88 NW5       30.14R FOG     WCI  13
6HR MIN TEMP:  19; 6HR MAX TEMP:  23; 6HR PCP: TRACE;

EAGLE RIVER    CLOUDY    21  17  84 NW5       30.13R WCI  15
6HR MIN TEMP:  20; 6HR MAX TEMP:  22;

LAND O LAKES   FLURRIES  22  19  89 N6        30.14R WCI  14
6HR MIN TEMP:  22; 6HR MAX TEMP:  23;

PHILLIPS       FLURRIES  21  18  88 N7        30.16S WCI  13
6HR MIN TEMP:  20; 6HR MAX TEMP:  23;

TOMAHAWK       CLOUDY    21  19  93 CALM      30.16R
6HR MIN TEMP:  21; 6HR MAX TEMP:  24;

MEDFORD        CLOUDY    21  19  91 NW8       30.16R WCI  12
6HR MIN TEMP:  21; 6HR MAX TEMP:  24;

MERRILL        LGT SNOW  23  21  93 CALM      30.15S
6HR MIN TEMP:  23; 6HR MAX TEMP:  26;

$$

WIZ029-030-035-036-043>047-270100-
CENTRAL WISCONSIN

CITY           SKY/WX    TMP DP  RH WIND       PRES   REMARKS
WAUSAU         LGT SNOW  24  21  88 NW5       30.15R FOG     WCI  18
6HR MIN TEMP:  22; 6HR MAX TEMP:  25; 6HR PCP: TRACE;

MOSINEE        LGT SNOW  23  23 100 NW7       30.16S WCI  15
MARSHFIELD     LGT SNOW  24  20  84 N8        30.16S FOG     WCI  15
6HR MIN TEMP:  22; 6HR MAX TEMP:  26; 6HR PCP: TRACE;

STEVENS POINT  CLOUDY    22  18  87 NW3       30.17S
6HR MIN TEMP:  17; 6HR MAX TEMP:  22;

WAUPACA        MOCLDY    18  15  89 CALM      30.18S FOG
6HR MIN TEMP:  18; 6HR MAX TEMP:  24;

WAUTOMA        MOCLDY    16  14  91 CALM      30.19S FOG
6HR MIN TEMP:  16; 6HR MAX TEMP:  24; 6HR PCP:  0.01;

WISC RAPIDS    CLOUDY    23  17  78 NW5       30.19R WCI  17
6HR MIN TEMP:  21; 6HR MAX TEMP:  26;

CAMP DOUGLAS   CLOUDY    20  20 100 W2        30.19R
6HR MIN TEMP:  20; 6HR MAX TEMP:  27;

$$

WIZ011>013-019>022-031-037>040-048>050-270100-
NORTHEAST WISCONSIN

CITY           SKY/WX    TMP DP  RH WIND       PRES   REMARKS
ANTIGO         CLOUDY    21  18  88 NW7       30.13S WCI  13
6HR MIN TEMP:  18; 6HR MAX TEMP:  22;

SHAWANO        CLOUDY    23  19  85 CALM      30.17S
6HR MIN TEMP:  22; 6HR MAX TEMP:  25;

OCONTO         CLOUDY    19  17  91 CALM      30.17S
6HR MIN TEMP:  19; 6HR MAX TEMP:  23;

STURGEON BAY   MOCLDY    23  16  74 NW7       30.16S WCI  15
6HR MIN TEMP:  21; 6HR MAX TEMP:  27;

GREEN BAY      MOCLDY    19  16  88 CALM      30.18S FOG
6HR MIN TEMP:  19; 6HR MAX TEMP:  26;

MANITOWOC      MOCLDY    21  20  96 NW6       30.17S WCI  13
6HR MIN TEMP:  21; 6HR MAX TEMP:  27;

APPLETON       NOT AVBL
CLINTONVILLE   MOCLDY    16  14  93 CALM      30.17S FOG
OSHKOSH        CLOUDY    22  17  81 MISG      30.17S
6HR MIN TEMP:  21; 6HR MAX TEMP:  23;

$$

WIZ032>034-041-042-053>061-270100-
SOUTHWEST WISCONSIN

CITY           SKY/WX    TMP DP  RH WIND       PRES   REMARKS
LA CROSSE      LGT SNOW  26  22  84 N10       30.23R FOG     WCI  16
6HR MIN TEMP:  26; 6HR MAX TEMP:  29; 6HR PCP:  0.01;

SPARTA         LGT SNOW  25  22  88 NW6       30.22R WCI  18
6HR MIN TEMP:  25; 6HR MAX TEMP:  28;

VIROQUA        CLOUDY    25  20  83 NW10      30.17R WCI  14
6HR MIN TEMP:  24; 6HR MAX TEMP:  27;

BOSCOBEL       MOCLDY    21  17  84 CALM      30.22R FOG
6HR MIN TEMP:  21; 6HR MAX TEMP:  25;

PRAIRIE DU CHI CLOUDY    25  20  81 CALM      30.21S
6HR MIN TEMP:  25; 6HR MAX TEMP:  28;

PLATTEVILLE    CLOUDY    23  20  89 CALM      30.19R
6HR MIN TEMP:  23; 6HR MAX TEMP:  27;

$$

WIZ056-057-062-063-064-067-068-270100-
SOUTH CENTRAL WISCONSIN

CITY           SKY/WX    TMP DP  RH WIND       PRES   REMARKS
REEDSBURG      PTCLDY    19  17  92 CALM      30.19R
6HR MIN TEMP:  19; 6HR MAX TEMP:  23;

BARABOO/DELLS  PTCLDY    17  15  93 CALM      30.18R FOG
6HR MIN TEMP:  16; 6HR MAX TEMP:  21;

LONE ROCK      CLOUDY    22  15  75 CALM      30.20R HAZE
6HR MIN TEMP:  21; 6HR MAX TEMP:  26;

MINERAL POINT  MOCLDY    23  19  86 N3        30.16R FOG
MADISON        MOCLDY    19  15  84 CALM      30.18R
6HR MIN TEMP:  19; 6HR MAX TEMP:  24;

MIDDLETON      CLOUDY    19  17  91 NW3       30.17S
6HR MIN TEMP:  19; 6HR MAX TEMP:  24;

WATERTOWN      CLOUDY    22  19  91 NW6       30.16S WCI  14
6HR MIN TEMP:  16; 6HR MAX TEMP:  22;

MONROE         CLOUDY    23  21  93 N10       30.15R WCI  12
JANESVILLE     CLOUDY    23  21  93 N8        30.14S FOG     WCI  14
$$

WIZ051-052-058>065-066-070>072-270100-
SOUTHEAST WISCONSIN

CITY           SKY/WX    TMP DP  RH WIND       PRES   REMARKS
MILWAUKEE      CLOUDY    30  20  66 N10       30.14R WCI  21
6HR MIN TEMP:  27; 6HR MAX TEMP:  31;

WAUKESHA       CLOUDY    21  19  93 NW9       30.16R FOG     WCI  11
MILWAUKEE/TIMM CLOUDY    27  19  74 NW8       30.16R WCI  18
RACINE         CLOUDY    29  23  78 NW6       30.15S WCI  23
6HR MIN TEMP:  27; 6HR MAX TEMP:  29;

BURLINGTON     CLOUDY    22  20  91 NW9       30.15R WCI  12
6HR MIN TEMP:  22; 6HR MAX TEMP:  26;

KENOSHA        CLOUDY    28  24  85 N8        30.13S WCI  20
6HR MIN TEMP:  25; 6HR MAX TEMP:  29;

FOND DU LAC    MOCLDY    21  16  81 NW7       30.17S WCI  12
6HR MIN TEMP:  20; 6HR MAX TEMP:  24; 6HR PCP: TRACE;

SHEBOYGAN      MOCLDY    20  17  88 NW5       30.16S WCI  13
6HR MIN TEMP:  20; 6HR MAX TEMP:  26;

WEST BEND      MOCLDY    23  19  86 NW3       30.16R
JUNEAU         MOCLDY    21  19  90 CALM      30.18S
6HR MIN TEMP:  19; 6HR MAX TEMP:  23;

$$

LSZ147-162-270100-
LAKE SUPERIOR

STATION/POSITION TIME  TEMP    WIND        PRES    WAVE
                       AIR SEA DIR/SP/G            HT/PER
                 (UTC) (F)     (DEG/KT/KT) (MB)    (FT/S)
DEVILS ISLAND    0000   20     350/ 17/ 19 1026.9R
PORT WING        2340   21     330/ 15/ 19 1026.1R
SAXON HARBOR     2300   25     330/  9/ 15 1024.0R
$$

LMZ867-665-643>646-270100-
LAKE MICHIGAN

STATION/POSITION TIME  TEMP    WIND        PRES    WAVE



USA.gov is the U.S. government's official web portal to all federal, state and local government web resources and services.